Location: Newark
(44.4156°N, 12.1972°E)
Time: 01:38:23
(UTC+00:00)

STARLINK-1088 - Pass Details

Date: 02 February 2020
Orbit: 345 x 354 km, 53.0° (Epoch: 17 February)

Event Time Altitude Azimuth Distance (km) Brightness Sun altitude
Rises 17:38:16 0° 296° (WNW) 2,208 7.7 -14.0°
Reaches altitude 10° 17:40:28 10° 283° (WNW) 1,357 6.7 -14.4°
Maximum altitude 17:43:04 26° 224° (SW) 762 5.0 -14.9°
Drops below altitude 10° 17:45:39 10° 165° (SSE) 1,348 5.5 -15.3°
Enters shadow 17:46:46 - 156° (SSE) 1,767 6.1 -15.5°
